Retour au catalogue

STARLINK-30772

ActifCommunicationsVLEO
NORAD 58135·PAYLOAD·🇺🇸 United States

Lancé Oct 22, 2023 depuis Cape Canaveral Space Force Station

Loading…

Prochains Passages (prochaines 24 heures)

TLE

FraisSource: CelesTrak SupGP

Époque: Sep 14, 2026, 20:53 UTC

1 58135C 23162T   26257.87062500 -.00008939  00000+0 -32386-3 0  2578
2 58135  43.0006 144.0131 0001510 268.9924 347.9290 15.27573249    18

Suivez STARLINK-30772 en temps réel avec AllMySat

Download on the App Store